Preview of NWS' New Version of Forecast
This preview is not operational and should not be used for support decisions.

Regional Weather Roundup (RWR)

Issued by Philadelphia/Mt Holly (PHI)

                            
000
ASUS41 KPHI 250712
RWRPHI

REGIONAL WEATHER ROUNDUP
NATIONAL WEATHER SERVICE MOUNT HOLLY NJ
300 AM EDT SAT MAY 25 2019

NOTE:  "FAIR" INDICATES FEW OR NO CLOUDS BELOW 12,000 FEET WITH NO
SIGNIFICANT WEATHER AND/OR OBSTRUCTIONS TO VISIBILITY.

 * = STATION DOES NOT REPORT PRECIPITATION (E.G. RAIN, SNOW, ETC.) 
        OR FOG.

NJZ015>026-250800-
SOUTHERN NEW JERSEY
  
CITY           SKY/WX    TMP DP  RH WIND       PRES   REMARKS
POMONA         FAIR      59  55  87 E10       30.15R                  
WILDWOOD*      FAIR      61  55  81 E9        30.15R                  
MILLVILLE      FAIR      61  51  70 NE6       30.13S                  
WRIGHTSTOWN    FAIR      56  49  78 NE6       30.12S                  
MOUNT HOLLY    FAIR      58  49  72 NE3       30.14S                  
TRENTON        FAIR      57  48  72 NE7       30.14S                  

$$
NJZ001>014-250800-
NORTHERN NEW JERSEY
  
CITY           SKY/WX    TMP DP  RH WIND       PRES   REMARKS
SUSSEX         FAIR      48  47  96 CALM      30.18F                  
ANDOVER*         N/A     50  48  93 S3        30.17F                  
MORRISTOWN     FAIR      54  54 100 CALM      30.16S                  
NEWARK         FAIR      58  49  72 N7        30.15S                  
TETERBORO      FAIR      58  50  75 CALM      30.15R                  
CALDWELL       FAIR      55  51  86 CALM      30.17S                  
SOMERVILLE     FAIR      53  49  86 CALM      30.14S                  
ALLAIRE*       FAIR      57  51  80 SE7       30.17R                  
TOMS RIVER*    FAIR      54  51  90 CALM      30.17R                  

$$
PAZ043-044-047-054-055-060>062-066>071-250800-
EASTERN PENNSYLVANIA
  
CITY           SKY/WX    TMP DP  RH WIND       PRES   REMARKS
PHILADELPHIA   FAIR      61  49  64 NE8       30.14F                  
NORTH PHILA    FAIR      58  48  69 NE8       30.15F                  
BLUE BELL*     FAIR      53  51  92 CALM      30.15S                  
QUAKERTOWN*    CLEAR     54  50  87 CALM      30.16R                  
PERKASIE*      FAIR      50  50 100 CALM      30.16S                  
POTTSTOWN      FAIR      53  49  86 CALM      30.17R                  
LANCASTER      FAIR      63  52  67 E7        30.14S                  
COATESVILLE    FAIR      59  50  72 CALM      30.16S                  
WEST CHESTER   FAIR      61  48  63 NE3       30.15S                  
READING        FAIR      58  52  80 CALM      30.14S                  
ALLENTOWN      FAIR      58  47  66 CALM      30.15F                  
QN CITY/ALNTWN FAIR      57  50  77 CALM      30.17R                  
MOUNT POCONO   FAIR      49  46  90 NE3       30.16F                  
HAZLETON       FAIR      46  45  93 CALM      30.19F                  
LEHIGHTON      FAIR      50  48  93 CALM      30.17S                  
WILKES BARRE   FAIR      52  47  83 E5        30.15F                  

$$
DEZALL-MDZ008-012-015-019-020-250800-
DELAWARE AND EASTERN MARYLAND
  
CITY           SKY/WX    TMP DP  RH WIND       PRES   REMARKS
WILMINGTON     FAIR      62  51  67 NE6       30.15R                  
DOVER          CLOUDY    65  51  60 NE12      30.13S                  
CHESWOLD         N/A     63  54  72 NE7       30.13S                  
GEORGETOWN     FAIR      64  54  69 E9        30.14R                  
EASTON         FAIR      66  56  70 E5        30.16R                  
STEVENSVILLE   FAIR      68  55  64 E8        30.13R                  
PATUXENT       FAIR      64  62  93 E6        30.10R                  
OCEAN CITY     CLOUDY    64  56  75 E8        30.13S                  
WALLOPS ISLAND FAIR      67  56  67 E12       30.12S                  
CAMBRIDGE      PTCLDY    64  57  77 E6        30.12S                  
SALISBURY      CLOUDY    65  55  70 E7        30.12R                  

$$
PAZ001-021-NYZ056-072-MDZ011-DCZ001-250800-
OTHER NEARBY LOCATIONS
  
CITY           SKY/WX    TMP DP  RH WIND       PRES   REMARKS
HARRISBURG     FAIR      65  52  62 E6        30.13R                  
STATE COLLEGE  CLOUDY    59  52  77 CALM      30.15S                  
WILLIAMSPORT   FAIR      57  50  77 E5        30.14F                  
BINGHAMTON     FAIR      48  44  86 E5        30.15F                  
NEW YORK CITY  MOCLDY    59  50  72 CALM      30.19R                  
BALTIMORE      FAIR      69  54  58 E16       30.12R                  
WASHINGTON DC  CLOUDY    70  57  63 N6        30.11R                  

$$